Time,TemperatureF,DewpointF,PressureIn,WindDirection,WindDirectionDegrees,WindSpeedMPH,WindSpeedGustMPH,Humidity,HourlyPrecipIn,Conditions,Clouds,dailyrainin,SoftwareType,DateUTC
2013-05-24 00:01:00,63.9,62.1,29.04,SW,223,0.0,1.0,94,0.00,,,0.23,meteohub,2013-05-24 04:01:00,
2013-05-24 00:02:00,63.7,61.9,29.04,SW,223,0.0,1.0,94,0.00,,,0.23,meteohub,2013-05-24 04:02:00,
2013-05-24 00:07:00,63.7,61.9,29.04,SW,223,0.0,0.0,94,0.00,,,0.00,meteohub,2013-05-24 04:07:00,
2013-05-24 00:12:00,63.5,61.7,29.04,SW,223,0.0,0.0,94,0.00,,,0.00,meteohub,2013-05-24 04:12:00,
2013-05-24 00:17:00,63.3,61.5,29.04,SW,223,0.0,0.0,94,0.00,,,0.00,meteohub,2013-05-24 04:17:00,
2013-05-24 00:22:00,63.3,61.5,29.04,SW,223,0.0,1.0,94,0.00,,,0.00,meteohub,2013-05-24 04:22:00,
2013-05-24 00:27:00,63.1,61.3,29.04,SW,223,0.0,1.0,94,0.00,,,0.00,meteohub,2013-05-24 04:27:00,
2013-05-24 00:32:00,63.1,61.3,29.04,SW,223,0.0,1.0,94,0.00,,,0.00,meteohub,2013-05-24 04:32:00,
2013-05-24 00:37:00,63.0,61.2,29.04,SW,223,0.0,0.0,94,0.00,,,0.00,meteohub,2013-05-24 04:37:00,
2013-05-24 00:42:00,63.0,61.2,29.04,SW,223,0.0,0.0,94,0.00,,,0.00,meteohub,2013-05-24 04:42:00,
2013-05-24 00:47:00,62.8,61.0,29.03,SW,223,0.0,0.0,94,0.00,,,0.00,meteohub,2013-05-24 04:47:00,
2013-05-24 00:52:00,62.6,60.8,29.03,SW,223,0.0,0.0,94,0.00,,,0.00,meteohub,2013-05-24 04:52:00,
2013-05-24 00:57:00,62.4,60.6,29.03,SW,223,0.0,0.0,94,0.00,,,0.00,meteohub,2013-05-24 04:57:00,
2013-05-24 01:02:00,62.4,60.6,29.03,SW,223,0.0,1.0,94,0.00,,,0.00,meteohub,2013-05-24 05:02:00,
2013-05-24 01:07:00,62.2,60.4,29.03,SW,223,0.0,1.0,94,0.00,,,0.00,meteohub,2013-05-24 05:07:00,
2013-05-24 01:12:00,62.2,60.4,29.03,SW,223,0.0,1.0,94,0.00,,,0.00,meteohub,2013-05-24 05:12:00,
2013-05-24 01:17:00,62.2,60.8,29.03,SW,223,0.0,0.0,95,0.00,,,0.00,meteohub,2013-05-24 05:17:00,
2013-05-24 01:22:00,62.2,60.8,29.03,SW,223,0.0,0.0,95,0.00,,,0.00,meteohub,2013-05-24 05:22:00,
2013-05-24 01:27:00,62.1,60.6,29.03,SW,223,0.0,1.0,95,0.01,,,0.00,meteohub,2013-05-24 05:27:00,
2013-05-24 01:32:00,62.1,60.3,29.03,SW,223,0.0,1.0,94,0.01,,,0.01,meteohub,2013-05-24 05:32:00,
2013-05-24 01:37:00,61.9,60.1,29.02,SW,223,0.0,1.0,94,0.01,,,0.01,meteohub,2013-05-24 05:37:00,
2013-05-24 01:42:00,61.9,60.4,29.02,SW,223,0.0,1.0,95,0.01,,,0.01,meteohub,2013-05-24 05:42:00,
2013-05-24 01:47:00,61.9,60.4,29.02,SW,223,0.0,1.0,95,0.01,,,0.01,meteohub,2013-05-24 05:47:00,
2013-05-24 01:52:00,61.5,60.1,29.02,SW,223,0.0,0.0,95,0.01,,,0.01,meteohub,2013-05-24 05:52:00,
2013-05-24 01:57:00,61.5,60.1,29.01,SW,223,0.0,0.0,95,0.01,,,0.01,meteohub,2013-05-24 05:57:00,
2013-05-24 02:02:00,61.5,60.1,29.01,SW,223,0.0,0.0,95,0.01,,,0.01,meteohub,2013-05-24 06:02:00,
2013-05-24 02:07:00,61.3,59.9,29.00,SW,223,0.0,0.0,95,0.01,,,0.01,meteohub,2013-05-24 06:07:00,
2013-05-24 02:12:00,61.3,59.9,29.00,SW,223,0.0,0.0,95,0.01,,,0.01,meteohub,2013-05-24 06:12:00,
2013-05-24 02:17:00,61.2,59.7,29.00,SW,223,0.0,0.0,95,0.01,,,0.01,meteohub,2013-05-24 06:17:00,
2013-05-24 02:22:00,61.2,59.7,29.00,SW,223,0.0,0.0,95,0.01,,,0.01,meteohub,2013-05-24 06:22:00,
2013-05-24 02:27:00,61.2,59.7,29.00,SW,223,0.0,0.0,95,0.00,,,0.01,meteohub,2013-05-24 06:27:00,
2013-05-24 02:32:00,61.0,59.5,29.00,SW,223,0.0,0.0,95,0.00,,,0.01,meteohub,2013-05-24 06:32:00,
2013-05-24 02:37:00,61.0,59.5,29.00,SW,223,0.0,0.0,95,0.00,,,0.01,meteohub,2013-05-24 06:37:00,
2013-05-24 02:42:00,61.0,59.5,29.01,SW,223,0.0,0.0,95,0.00,,,0.01,meteohub,2013-05-24 06:42:00,
2013-05-24 02:47:00,60.8,59.4,29.01,SW,223,0.0,0.0,95,0.00,,,0.01,meteohub,2013-05-24 06:47:00,
2013-05-24 02:52:00,60.6,59.2,29.01,SW,223,0.0,0.0,95,0.00,,,0.01,meteohub,2013-05-24 06:52:00,
2013-05-24 02:57:00,60.6,59.2,29.01,SW,223,0.0,0.0,95,0.00,,,0.01,meteohub,2013-05-24 06:57:00,
2013-05-24 03:02:00,60.6,59.2,29.00,SW,223,0.0,0.0,95,0.00,,,0.01,meteohub,2013-05-24 07:02:00,
2013-05-24 03:07:00,60.6,59.2,29.00,SW,223,0.0,0.0,95,0.00,,,0.01,meteohub,2013-05-24 07:07:00,
2013-05-24 03:12:00,60.6,59.2,29.00,SW,223,0.0,0.0,95,0.00,,,0.01,meteohub,2013-05-24 07:12:00,
2013-05-24 03:17:00,60.4,59.0,29.01,SW,223,0.0,0.0,95,0.00,,,0.01,meteohub,2013-05-24 07:17:00,
2013-05-24 03:22:00,60.4,59.0,29.00,SW,223,0.0,0.0,95,0.00,,,0.01,meteohub,2013-05-24 07:22:00,
2013-05-24 03:27:00,60.4,59.0,29.01,SW,223,0.0,0.0,95,0.00,,,0.01,meteohub,2013-05-24 07:27:00,
2013-05-24 03:32:00,60.4,59.0,29.00,SW,223,0.0,0.0,95,0.00,,,0.01,meteohub,2013-05-24 07:32:00,
2013-05-24 03:37:00,60.4,59.0,29.01,SW,223,0.0,0.0,95,0.00,,,0.01,meteohub,2013-05-24 07:37:00,
2013-05-24 03:39:00,60.4,59.0,29.00,SW,223,0.0,0.0,95,0.00,,,0.01,meteohub,2013-05-24 07:39:00,
2013-05-24 03:47:00,60.4,59.0,29.01,SW,223,0.0,1.0,95,0.00,,,0.01,meteohub,2013-05-24 07:47:00,
2013-05-24 03:52:00,60.4,59.0,29.01,SW,223,0.0,1.0,95,0.00,,,0.01,meteohub,2013-05-24 07:52:00,
2013-05-24 03:57:00,60.4,59.0,29.01,SW,223,0.0,1.0,95,0.00,,,0.01,meteohub,2013-05-24 07:57:00,
2013-05-24 04:02:00,60.4,59.0,29.00,SW,223,0.0,0.0,95,0.00,,,0.01,meteohub,2013-05-24 08:02:00,
2013-05-24 04:07:00,60.4,59.0,29.01,SW,223,0.0,0.0,95,0.00,,,0.01,meteohub,2013-05-24 08:07:00,
2013-05-24 04:12:00,60.4,59.0,29.01,SW,223,0.0,0.0,95,0.00,,,0.01,meteohub,2013-05-24 08:12:00,
2013-05-24 04:17:00,60.4,59.0,29.01,SW,223,0.0,0.0,95,0.00,,,0.01,meteohub,2013-05-24 08:17:00,
2013-05-24 04:22:00,60.4,59.0,29.01,SW,223,0.0,0.0,95,0.00,,,0.01,meteohub,2013-05-24 08:22:00,
2013-05-24 04:27:00,60.4,59.0,29.01,SW,223,0.0,0.0,95,0.00,,,0.01,meteohub,2013-05-24 08:27:00,
2013-05-24 04:32:00,60.4,59.0,29.01,SW,223,0.0,0.0,95,0.00,,,0.01,meteohub,2013-05-24 08:32:00,
2013-05-24 04:37:00,60.4,59.0,29.01,SW,223,0.0,0.0,95,0.00,,,0.01,meteohub,2013-05-24 08:37:00,
2013-05-24 04:42:00,60.6,59.2,29.01,SW,223,0.0,0.0,95,0.00,,,0.01,meteohub,2013-05-24 08:42:00,
2013-05-24 04:47:00,60.4,59.0,29.01,SW,223,0.0,0.0,95,0.00,,,0.01,meteohub,2013-05-24 08:47:00,
2013-05-24 04:52:00,60.4,59.0,29.01,SW,223,0.0,0.0,95,0.00,,,0.01,meteohub,2013-05-24 08:52:00,
2013-05-24 04:57:00,60.4,59.0,29.01,SW,223,0.0,0.0,95,0.00,,,0.01,meteohub,2013-05-24 08:57:00,
2013-05-24 05:02:00,60.4,59.0,29.01,SW,223,0.0,0.0,95,0.00,,,0.01,meteohub,2013-05-24 09:02:00,
2013-05-24 05:07:00,60.4,59.0,29.01,SW,223,0.0,0.0,95,0.00,,,0.01,meteohub,2013-05-24 09:07:00,
2013-05-24 05:12:00,60.4,59.0,29.01,SW,223,0.0,0.0,95,0.00,,,0.01,meteohub,2013-05-24 09:12:00,
2013-05-24 05:17:00,60.4,59.0,29.01,SW,223,0.0,0.0,95,0.00,,,0.01,meteohub,2013-05-24 09:17:00,
2013-05-24 05:22:00,60.4,59.0,29.01,SW,223,0.0,0.0,95,0.00,,,0.01,meteohub,2013-05-24 09:22:00,
2013-05-24 05:27:00,60.4,59.0,29.01,SW,223,0.0,0.0,95,0.00,,,0.01,meteohub,2013-05-24 09:27:00,
2013-05-24 05:32:00,60.4,59.4,29.02,SW,223,0.0,0.0,96,0.00,,,0.01,meteohub,2013-05-24 09:32:00,
2013-05-24 05:37:00,60.4,59.4,29.02,SW,223,0.0,0.0,96,0.00,,,0.01,meteohub,2013-05-24 09:37:00,
2013-05-24 05:42:00,60.4,59.4,29.02,SW,223,0.0,0.0,96,0.00,,,0.01,meteohub,2013-05-24 09:42:00,
2013-05-24 05:47:00,60.6,59.5,29.02,SW,216,0.0,0.0,96,0.00,,,0.01,meteohub,2013-05-24 09:47:00,
2013-05-24 05:52:00,60.6,59.5,29.02,SW,216,0.0,0.0,96,0.00,,,0.01,meteohub,2013-05-24 09:52:00,
2013-05-24 05:57:00,60.6,59.5,29.02,SW,216,0.0,0.0,96,0.00,,,0.01,meteohub,2013-05-24 09:57:00,
2013-05-24 06:02:00,60.8,59.7,29.02,SE,134,0.0,1.0,96,0.00,,,0.01,meteohub,2013-05-24 10:02:00,
2013-05-24 06:07:00,60.8,59.7,29.02,SE,134,0.0,1.0,96,0.00,,,0.01,meteohub,2013-05-24 10:07:00,
2013-05-24 06:11:00,61.0,59.9,29.02,SE,134,0.0,1.0,96,0.00,,,0.01,meteohub,2013-05-24 10:11:00,
2013-05-24 06:16:00,61.2,60.1,29.03,SE,134,0.0,0.0,96,0.00,,,0.01,meteohub,2013-05-24 10:16:00,
2013-05-24 06:21:00,61.2,60.1,29.03,SE,134,0.0,1.0,96,0.00,,,0.01,meteohub,2013-05-24 10:21:00,
2013-05-24 06:26:00,61.2,60.1,29.03,SE,134,0.0,1.0,96,0.00,,,0.01,meteohub,2013-05-24 10:26:00,
2013-05-24 06:31:00,61.3,60.3,29.03,SE,134,0.0,2.0,96,0.00,,,0.01,meteohub,2013-05-24 10:31:00,
2013-05-24 06:36:00,61.3,60.3,29.04,SE,134,0.0,2.0,96,0.00,,,0.01,meteohub,2013-05-24 10:36:00,
2013-05-24 06:41:00,61.5,60.4,29.04,SE,134,0.0,2.0,96,0.00,,,0.01,meteohub,2013-05-24 10:41:00,
2013-05-24 06:45:00,61.5,60.4,29.04,SE,134,0.0,2.0,96,0.00,,,0.01,meteohub,2013-05-24 10:45:00,
2013-05-24 06:47:00,61.5,60.4,29.04,SE,134,0.0,1.0,96,0.00,,,0.01,meteohub,2013-05-24 10:47:00,
2013-05-24 06:52:00,61.5,60.4,29.04,SE,134,0.0,2.0,96,0.00,,,0.01,meteohub,2013-05-24 10:52:00,
2013-05-24 06:57:00,61.5,60.4,29.04,SE,134,0.0,2.0,96,0.00,,,0.01,meteohub,2013-05-24 10:57:00,
2013-05-24 07:02:00,61.7,60.6,29.04,West,267,2.0,2.0,96,0.00,,,0.01,meteohub,2013-05-24 11:02:00,
2013-05-24 07:07:00,61.9,60.8,29.04,WSW,242,0.0,3.0,96,0.00,,,0.01,meteohub,2013-05-24 11:07:00,
2013-05-24 07:12:00,61.9,60.8,29.04,WSW,242,0.0,3.0,96,0.00,,,0.01,meteohub,2013-05-24 11:12:00,
2013-05-24 07:17:00,61.9,60.8,29.04,North,355,2.0,3.0,96,0.00,,,0.01,meteohub,2013-05-24 11:17:00,
2013-05-24 07:22:00,61.7,60.6,29.05,North,350,0.0,3.0,96,0.00,,,0.01,meteohub,2013-05-24 11:22:00,
2013-05-24 07:27:00,61.5,60.4,29.05,SSE,161,0.0,3.0,96,0.00,,,0.01,meteohub,2013-05-24 11:27:00,
2013-05-24 07:32:00,61.5,60.4,29.05,ESE,106,0.0,3.0,96,0.00,,,0.01,meteohub,2013-05-24 11:32:00,
2013-05-24 07:37:00,61.5,60.4,29.05,WSW,239,0.0,2.0,96,0.00,,,0.01,meteohub,2013-05-24 11:37:00,
2013-05-24 07:42:00,61.3,60.3,29.06,North,350,6.0,7.0,96,0.00,,,0.01,meteohub,2013-05-24 11:42:00,
2013-05-24 07:47:00,61.0,59.9,29.06,WNW,296,0.0,8.0,96,0.00,,,0.01,meteohub,2013-05-24 11:47:00,
2013-05-24 07:52:00,61.0,59.9,29.06,North,9,1.0,8.0,96,0.00,,,0.01,meteohub,2013-05-24 11:52:00,
2013-05-24 07:57:00,60.8,59.7,29.06,NNW,344,1.0,8.0,96,0.00,,,0.01,meteohub,2013-05-24 11:57:00,
2013-05-24 08:02:00,60.4,59.4,29.06,South,187,0.0,9.0,96,0.00,,,0.01,meteohub,2013-05-24 12:02:00,
2013-05-24 08:07:00,60.1,58.6,29.07,SSW,206,0.0,9.0,95,0.00,,,0.01,meteohub,2013-05-24 12:07:00,
2013-05-24 08:12:00,59.5,58.1,29.07,West,268,4.0,9.0,95,0.00,,,0.01,meteohub,2013-05-24 12:12:00,
2013-05-24 08:17:00,59.2,57.7,29.07,NW,304,0.0,9.0,95,0.00,,,0.01,meteohub,2013-05-24 12:17:00,
2013-05-24 08:22:00,59.0,57.6,29.08,SSE,165,3.0,11.0,95,0.01,,,0.02,meteohub,2013-05-24 12:22:00,
2013-05-24 08:27:00,58.5,57.0,29.08,SE,146,2.0,11.0,95,0.01,,,0.02,meteohub,2013-05-24 12:27:00,
2013-05-24 08:32:00,57.6,55.8,29.08,NW,308,11.0,11.0,94,0.01,,,0.02,meteohub,2013-05-24 12:32:00,
2013-05-24 08:37:00,56.8,55.2,29.09,South,190,0.0,11.0,94,0.01,,,0.02,meteohub,2013-05-24 12:37:00,
2013-05-24 08:42:00,56.3,54.7,29.09,East,88,0.0,11.0,94,0.02,,,0.03,meteohub,2013-05-24 12:42:00,
2013-05-24 08:47:00,55.9,54.3,29.10,North,5,3.0,11.0,94,0.02,,,0.03,meteohub,2013-05-24 12:47:00,
2013-05-24 08:52:00,55.8,54.1,29.10,North,355,0.0,7.0,94,0.02,,,0.03,meteohub,2013-05-24 12:52:00,
2013-05-24 08:57:00,55.6,54.0,29.10,SE,145,1.0,9.0,94,0.03,,,0.04,meteohub,2013-05-24 12:57:00,
2013-05-24 09:02:00,55.2,53.6,29.10,NE,50,0.0,9.0,94,0.03,,,0.04,meteohub,2013-05-24 13:02:00,
2013-05-24 09:07:00,55.0,53.4,29.10,North,355,4.0,9.0,94,0.03,,,0.04,meteohub,2013-05-24 13:07:00,
2013-05-24 09:12:00,54.7,53.1,29.11,WNW,298,2.0,11.0,94,0.04,,,0.05,meteohub,2013-05-24 13:12:00,
2013-05-24 09:17:00,54.3,52.3,29.11,West,261,3.0,11.0,93,0.04,,,0.05,meteohub,2013-05-24 13:17:00,
2013-05-24 09:22:00,54.1,52.2,29.11,NW,315,3.0,11.0,93,0.03,,,0.05,meteohub,2013-05-24 13:22:00,
2013-05-24 09:27:00,54.0,52.0,29.12,NW,316,4.0,9.0,93,0.03,,,0.05,meteohub,2013-05-24 13:27:00,
2013-05-24 09:32:00,53.6,51.6,29.12,NNE,22,5.0,7.0,93,0.03,,,0.05,meteohub,2013-05-24 13:32:00,
2013-05-24 09:37:00,53.1,50.7,29.12,NNW,333,2.0,15.0,92,0.03,,,0.05,meteohub,2013-05-24 13:37:00,
2013-05-24 09:42:00,52.7,50.4,29.12,North,0,2.0,15.0,92,0.03,,,0.06,meteohub,2013-05-24 13:42:00,
2013-05-24 09:47:00,52.5,50.5,29.12,NW,309,0.0,15.0,93,0.03,,,0.06,meteohub,2013-05-24 13:47:00,
2013-05-24 09:52:00,52.5,50.5,29.13,North,9,6.0,9.0,93,0.03,,,0.06,meteohub,2013-05-24 13:52:00,
2013-05-24 09:57:00,52.3,50.4,29.13,NW,306,1.0,11.0,93,0.02,,,0.06,meteohub,2013-05-24 13:57:00,
2013-05-24 10:02:00,52.3,50.4,29.13,WNW,289,2.0,11.0,93,0.02,,,0.06,meteohub,2013-05-24 14:02:00,
2013-05-24 10:07:00,52.3,50.4,29.13,West,260,1.0,11.0,93,0.02,,,0.06,meteohub,2013-05-24 14:07:00,
2013-05-24 10:12:00,52.3,50.4,29.13,NNE,14,1.0,9.0,93,0.01,,,0.06,meteohub,2013-05-24 14:12:00,
2013-05-24 10:17:00,52.2,49.8,29.14,North,0,2.0,9.0,92,0.01,,,0.06,meteohub,2013-05-24 14:17:00,
2013-05-24 10:22:00,52.0,49.6,29.14,NNE,32,1.0,9.0,92,0.01,,,0.06,meteohub,2013-05-24 14:22:00,
2013-05-24 10:27:00,52.0,49.6,29.14,North,0,1.0,14.0,92,0.01,,,0.06,meteohub,2013-05-24 14:27:00,
2013-05-24 10:32:00,51.6,49.1,29.15,WNW,294,0.0,14.0,91,0.01,,,0.06,meteohub,2013-05-24 14:32:00,
2013-05-24 10:37:00,51.6,49.1,29.15,NW,310,0.0,14.0,91,0.01,,,0.06,meteohub,2013-05-24 14:37:00,
2013-05-24 10:42:00,51.4,48.9,29.15,North,5,5.0,9.0,91,0.00,,,0.06,meteohub,2013-05-24 14:42:00,
2013-05-24 10:47:00,51.4,48.9,29.15,NNW,328,2.0,9.0,91,0.00,,,0.06,meteohub,2013-05-24 14:47:00,
2013-05-24 10:52:00,51.3,48.4,29.15,North,5,3.0,8.0,90,0.00,,,0.06,meteohub,2013-05-24 14:52:00,
2013-05-24 10:57:00,51.1,48.2,29.16,North,9,6.0,11.0,90,0.00,,,0.06,meteohub,2013-05-24 14:57:00,
2013-05-24 11:02:00,50.9,48.0,29.16,West,275,6.0,11.0,90,0.00,,,0.06,meteohub,2013-05-24 15:02:00,
2013-05-24 11:07:00,50.7,47.7,29.16,SSW,208,3.0,11.0,89,0.00,,,0.06,meteohub,2013-05-24 15:07:00,
2013-05-24 11:11:00,50.7,47.7,29.16,NNW,329,4.0,9.0,89,0.00,,,0.06,meteohub,2013-05-24 15:11:00,
2013-05-24 11:17:00,50.5,47.5,29.16,SW,218,0.0,9.0,89,0.00,,,0.06,meteohub,2013-05-24 15:17:00,
2013-05-24 11:22:00,50.7,47.8,29.16,WNW,295,1.0,7.0,90,0.00,,,0.06,meteohub,2013-05-24 15:22:00,
2013-05-24 11:27:00,50.7,47.7,29.16,NNE,19,0.0,14.0,89,0.00,,,0.06,meteohub,2013-05-24 15:27:00,
2013-05-24 11:32:00,50.5,47.5,29.16,WNW,284,0.0,14.0,89,0.00,,,0.06,meteohub,2013-05-24 15:32:00,
2013-05-24 11:37:00,50.5,47.5,29.16,NNE,23,1.0,14.0,89,0.00,,,0.06,meteohub,2013-05-24 15:37:00,
2013-05-24 11:42:00,50.5,47.1,29.16,NNW,348,2.0,9.0,88,0.00,,,0.06,meteohub,2013-05-24 15:42:00,
2013-05-24 11:47:00,50.4,47.3,29.17,NW,307,3.0,9.0,89,0.00,,,0.06,meteohub,2013-05-24 15:47:00,
2013-05-24 11:52:00,50.2,46.8,29.17,WNW,298,2.0,11.0,88,0.00,,,0.06,meteohub,2013-05-24 15:52:00,
2013-05-24 11:57:00,49.8,46.8,29.17,North,0,6.0,11.0,89,0.00,,,0.06,meteohub,2013-05-24 15:57:00,
2013-05-24 12:02:00,49.6,46.6,29.16,NNE,19,0.0,11.0,89,0.00,,,0.06,meteohub,2013-05-24 16:02:00,
2013-05-24 12:07:00,49.6,46.8,29.17,WNW,291,1.0,9.0,90,0.00,,,0.06,meteohub,2013-05-24 16:07:00,
2013-05-24 12:12:00,49.8,46.9,29.17,East,95,1.0,6.0,90,0.00,,,0.06,meteohub,2013-05-24 16:12:00,
2013-05-24 12:17:00,49.6,46.8,29.18,SSE,150,0.0,9.0,90,0.00,,,0.06,meteohub,2013-05-24 16:17:00,
2013-05-24 12:22:00,49.5,46.6,29.18,NNW,344,3.0,9.0,90,0.00,,,0.06,meteohub,2013-05-24 16:22:00,
2013-05-24 12:27:00,49.3,46.2,29.18,NW,324,3.0,9.0,89,0.00,,,0.06,meteohub,2013-05-24 16:27:00,
2013-05-24 12:32:00,49.1,46.0,29.19,NW,317,3.0,8.0,89,0.00,,,0.06,meteohub,2013-05-24 16:32:00,
2013-05-24 12:37:00,48.9,46.0,29.19,WNW,300,0.0,8.0,90,0.00,,,0.06,meteohub,2013-05-24 16:37:00,
2013-05-24 12:42:00,48.7,45.9,29.19,South,176,1.0,8.0,90,0.00,,,0.06,meteohub,2013-05-24 16:42:00,
2013-05-24 12:47:00,48.7,45.9,29.19,NNE,25,0.0,8.0,90,0.00,,,0.06,meteohub,2013-05-24 16:47:00,
2013-05-24 12:52:00,48.7,45.9,29.19,NNW,344,0.0,8.0,90,0.00,,,0.06,meteohub,2013-05-24 16:52:00,
2013-05-24 12:57:00,48.6,45.7,29.19,North,355,4.0,11.0,90,0.00,,,0.06,meteohub,2013-05-24 16:57:00,
2013-05-24 13:02:00,48.6,45.7,29.19,NW,325,0.0,11.0,90,0.00,,,0.06,meteohub,2013-05-24 17:02:00,
2013-05-24 13:07:00,48.7,45.9,29.18,SSW,203,0.0,11.0,90,0.00,,,0.06,meteohub,2013-05-24 17:07:00,
2013-05-24 13:12:00,48.9,46.4,29.19,North,5,1.0,11.0,91,0.00,,,0.06,meteohub,2013-05-24 17:12:00,
2013-05-24 13:17:00,48.9,46.0,29.18,West,281,4.0,8.0,90,0.00,,,0.06,meteohub,2013-05-24 17:17:00,
2013-05-24 13:22:00,48.9,45.9,29.19,WNW,286,3.0,10.0,89,0.00,,,0.06,meteohub,2013-05-24 17:22:00,
2013-05-24 13:27:00,49.1,46.0,29.19,NW,323,4.0,10.0,89,0.00,,,0.06,meteohub,2013-05-24 17:27:00,
2013-05-24 13:32:00,48.9,45.5,29.19,NNW,344,5.0,10.0,88,0.00,,,0.06,meteohub,2013-05-24 17:32:00,
2013-05-24 13:37:00,48.9,45.1,29.19,NNW,347,2.0,14.0,87,0.00,,,0.06,meteohub,2013-05-24 17:37:00,
2013-05-24 13:42:00,48.7,45.0,29.19,WNW,283,0.0,14.0,87,0.00,,,0.06,meteohub,2013-05-24 17:42:00,
2013-05-24 13:47:00,48.7,45.3,29.19,NW,321,0.0,14.0,88,0.00,,,0.06,meteohub,2013-05-24 17:47:00,
2013-05-24 13:52:00,48.9,45.1,29.19,West,277,2.0,11.0,87,0.00,,,0.06,meteohub,2013-05-24 17:52:00,
2013-05-24 13:57:00,48.9,45.0,29.20,WNW,292,3.0,10.0,86,0.00,,,0.06,meteohub,2013-05-24 17:57:00,
2013-05-24 14:02:00,48.7,44.8,29.19,WNW,282,4.0,14.0,86,0.00,,,0.06,meteohub,2013-05-24 18:02:00,
2013-05-24 14:07:00,48.7,44.8,29.19,North,5,1.0,14.0,86,0.00,,,0.06,meteohub,2013-05-24 18:07:00,
2013-05-24 14:12:00,48.9,45.1,29.19,WNW,294,4.0,14.0,87,0.00,,,0.06,meteohub,2013-05-24 18:12:00,
2013-05-24 14:17:00,48.9,45.0,29.18,WNW,293,4.0,7.0,86,0.00,,,0.06,meteohub,2013-05-24 18:17:00,
2013-05-24 14:22:00,48.7,44.8,29.19,NNW,329,0.0,10.0,86,0.00,,,0.06,meteohub,2013-05-24 18:22:00,
2013-05-24 14:27:00,48.7,44.4,29.20,NW,305,2.0,10.0,85,0.00,,,0.06,meteohub,2013-05-24 18:27:00,
2013-05-24 14:32:00,48.7,44.4,29.20,North,355,3.0,10.0,85,0.00,,,0.06,meteohub,2013-05-24 18:32:00,
2013-05-24 14:37:00,48.7,44.4,29.20,West,280,2.0,8.0,85,0.00,,,0.06,meteohub,2013-05-24 18:37:00,
2013-05-24 14:42:00,48.7,44.1,29.21,SSE,166,0.0,8.0,84,0.00,,,0.06,meteohub,2013-05-24 18:42:00,
2013-05-24 14:47:00,48.7,44.1,29.21,WNW,284,1.0,8.0,84,0.00,,,0.06,meteohub,2013-05-24 18:47:00,
2013-05-24 14:52:00,48.9,44.2,29.21,WNW,286,7.0,8.0,84,0.00,,,0.06,meteohub,2013-05-24 18:52:00,
2013-05-24 14:57:00,48.9,44.1,29.21,SW,219,1.0,9.0,83,0.00,,,0.06,meteohub,2013-05-24 18:57:00,
2013-05-24 15:02:00,48.9,44.1,29.21,NNW,330,1.0,9.0,83,0.00,,,0.06,meteohub,2013-05-24 19:02:00,
2013-05-24 15:07:00,49.1,43.9,29.21,WSW,252,0.0,9.0,82,0.00,,,0.06,meteohub,2013-05-24 19:07:00,
2013-05-24 15:12:00,49.3,43.7,29.21,NNW,336,6.0,8.0,81,0.00,,,0.06,meteohub,2013-05-24 19:12:00,
2013-05-24 15:17:00,49.3,43.7,29.21,NNW,345,1.0,7.0,81,0.00,,,0.06,meteohub,2013-05-24 19:17:00,
2013-05-24 15:22:00,49.3,43.3,29.21,SSW,210,1.0,8.0,80,0.01,,,0.07,meteohub,2013-05-24 19:22:00,
2013-05-24 15:27:00,49.5,43.5,29.21,NW,304,7.0,11.0,80,0.01,,,0.07,meteohub,2013-05-24 19:27:00,
2013-05-24 15:32:00,49.6,43.7,29.21,NNW,327,3.0,11.0,80,0.01,,,0.07,meteohub,2013-05-24 19:32:00,
2013-05-24 15:37:00,49.6,43.3,29.22,NNE,22,0.0,11.0,79,0.01,,,0.07,meteohub,2013-05-24 19:37:00,
2013-05-24 15:42:00,49.8,43.5,29.21,NW,325,3.0,17.0,79,0.01,,,0.07,meteohub,2013-05-24 19:42:00,
2013-05-24 15:47:00,49.8,43.2,29.21,NNE,13,2.0,17.0,78,0.01,,,0.07,meteohub,2013-05-24 19:47:00,
2013-05-24 15:52:00,50.0,43.3,29.21,NNE,32,2.0,17.0,78,0.01,,,0.07,meteohub,2013-05-24 19:52:00,
2013-05-24 15:57:00,50.2,43.9,29.21,WNW,298,5.0,12.0,79,0.01,,,0.07,meteohub,2013-05-24 19:57:00,
2013-05-24 16:02:00,50.4,43.3,29.22,NE,49,5.0,10.0,77,0.01,,,0.07,meteohub,2013-05-24 20:02:00,
2013-05-24 16:07:00,50.4,43.3,29.22,NW,325,3.0,10.0,77,0.01,,,0.07,meteohub,2013-05-24 20:07:00,
2013-05-24 16:12:00,50.5,43.5,29.21,NW,323,3.0,10.0,77,0.01,,,0.07,meteohub,2013-05-24 20:12:00,
2013-05-24 16:17:00,50.5,43.5,29.21,NW,323,2.0,10.0,77,0.01,,,0.07,meteohub,2013-05-24 20:17:00,
2013-05-24 16:22:00,50.4,43.2,29.21,NW,323,8.0,10.0,76,0.00,,,0.07,meteohub,2013-05-24 20:22:00,
2013-05-24 16:27:00,50.4,43.2,29.22,ENE,62,1.0,13.0,76,0.00,,,0.07,meteohub,2013-05-24 20:27:00,
2013-05-24 16:32:00,50.2,43.0,29.22,ESE,104,0.0,13.0,76,0.00,,,0.07,meteohub,2013-05-24 20:32:00,
2013-05-24 16:37:00,50.2,43.3,29.22,NW,313,4.0,13.0,77,0.00,,,0.07,meteohub,2013-05-24 20:37:00,
2013-05-24 16:42:00,50.2,43.0,29.22,West,269,3.0,10.0,76,0.00,,,0.07,meteohub,2013-05-24 20:42:00,
2013-05-24 16:47:00,50.2,43.3,29.23,North,5,1.0,9.0,77,0.00,,,0.07,meteohub,2013-05-24 20:47:00,
2013-05-24 16:52:00,50.2,43.3,29.23,ESE,105,2.0,9.0,77,0.00,,,0.07,meteohub,2013-05-24 20:52:00,
2013-05-24 16:57:00,50.2,43.3,29.22,WNW,282,2.0,9.0,77,0.00,,,0.07,meteohub,2013-05-24 20:57:00,
2013-05-24 17:02:00,50.4,43.2,29.23,NW,307,1.0,9.0,76,0.00,,,0.07,meteohub,2013-05-24 21:02:00,
2013-05-24 17:07:00,50.4,43.3,29.22,NE,42,2.0,9.0,77,0.00,,,0.07,meteohub,2013-05-24 21:07:00,
2013-05-24 17:12:00,50.4,43.3,29.22,NNW,331,0.0,8.0,77,0.00,,,0.07,meteohub,2013-05-24 21:12:00,
2013-05-24 17:17:00,50.4,43.3,29.22,WNW,293,2.0,7.0,77,0.00,,,0.07,meteohub,2013-05-24 21:17:00,
2013-05-24 17:22:00,50.4,43.2,29.22,West,281,6.0,10.0,76,0.00,,,0.07,meteohub,2013-05-24 21:22:00,
2013-05-24 17:27:00,50.4,42.8,29.22,WNW,288,3.0,11.0,75,0.00,,,0.07,meteohub,2013-05-24 21:27:00,
2013-05-24 17:32:00,50.2,42.3,29.23,North,355,2.0,13.0,74,0.00,,,0.07,meteohub,2013-05-24 21:32:00,
2013-05-24 17:37:00,50.4,42.8,29.23,North,5,1.0,13.0,75,0.00,,,0.07,meteohub,2013-05-24 21:37:00,
2013-05-24 17:42:00,50.4,42.8,29.23,North,355,7.0,13.0,75,0.00,,,0.07,meteohub,2013-05-24 21:42:00,
2013-05-24 17:47:00,50.2,42.3,29.23,NNW,333,5.0,11.0,74,0.00,,,0.07,meteohub,2013-05-24 21:47:00,
2013-05-24 17:52:00,50.2,42.3,29.24,NW,319,3.0,11.0,74,0.00,,,0.07,meteohub,2013-05-24 21:52:00,
2013-05-24 17:57:00,50.0,42.1,29.24,West,267,3.0,11.0,74,0.00,,,0.07,meteohub,2013-05-24 21:57:00,
2013-05-24 18:02:00,49.8,42.3,29.24,NW,315,4.0,10.0,75,0.00,,,0.07,meteohub,2013-05-24 22:02:00,
2013-05-24 18:07:00,49.8,41.9,29.24,NNE,13,2.0,13.0,74,0.00,,,0.07,meteohub,2013-05-24 22:07:00,
2013-05-24 18:12:00,49.6,41.7,29.24,WNW,302,4.0,13.0,74,0.00,,,0.07,meteohub,2013-05-24 22:12:00,
2013-05-24 18:17:00,49.6,41.7,29.24,NW,309,1.0,13.0,74,0.00,,,0.07,meteohub,2013-05-24 22:17:00,
2013-05-24 18:22:00,49.6,41.7,29.25,East,80,0.0,13.0,74,0.00,,,0.07,meteohub,2013-05-24 22:22:00,
2013-05-24 18:27:00,49.6,41.7,29.25,NE,45,2.0,15.0,74,0.00,,,0.07,meteohub,2013-05-24 22:27:00,
2013-05-24 18:32:00,49.5,41.2,29.25,West,279,0.0,15.0,73,0.00,,,0.07,meteohub,2013-05-24 22:32:00,
2013-05-24 18:37:00,49.5,40.8,29.25,SW,214,1.0,15.0,72,0.00,,,0.07,meteohub,2013-05-24 22:37:00,
2013-05-24 18:42:00,49.5,41.2,29.26,ENE,58,2.0,12.0,73,0.00,,,0.07,meteohub,2013-05-24 22:42:00,
2013-05-24 18:47:00,49.5,41.5,29.25,ESE,106,2.0,12.0,74,0.00,,,0.07,meteohub,2013-05-24 22:47:00,
2013-05-24 18:52:00,49.5,41.2,29.25,SSW,192,0.0,12.0,73,0.00,,,0.07,meteohub,2013-05-24 22:52:00,
2013-05-24 18:57:00,49.5,41.5,29.26,SE,126,1.0,12.0,74,0.00,,,0.07,meteohub,2013-05-24 22:57:00,
2013-05-24 19:02:00,49.5,41.5,29.26,NW,316,4.0,12.0,74,0.00,,,0.07,meteohub,2013-05-24 23:02:00,
2013-05-24 19:07:00,49.5,41.5,29.26,ESE,105,2.0,15.0,74,0.00,,,0.07,meteohub,2013-05-24 23:07:00,
2013-05-24 19:12:00,49.3,41.7,29.26,NNE,19,7.0,15.0,75,0.00,,,0.07,meteohub,2013-05-24 23:12:00,
2013-05-24 19:17:00,49.3,41.4,29.27,WSW,243,2.0,15.0,74,0.00,,,0.07,meteohub,2013-05-24 23:17:00,
2013-05-24 19:22:00,49.1,41.2,29.27,NE,44,2.0,12.0,74,0.00,,,0.07,meteohub,2013-05-24 23:22:00,
2013-05-24 19:27:00,48.9,41.4,29.27,NNW,345,3.0,12.0,75,0.00,,,0.07,meteohub,2013-05-24 23:27:00,
2013-05-24 19:32:00,48.9,41.0,29.27,SW,220,2.0,14.0,74,0.00,,,0.07,meteohub,2013-05-24 23:32:00,
2013-05-24 19:37:00,48.7,41.2,29.28,West,265,11.0,14.0,75,0.00,,,0.07,meteohub,2013-05-24 23:37:00,
2013-05-24 19:42:00,48.6,40.3,29.27,North,0,6.0,19.0,73,0.00,,,0.07,meteohub,2013-05-24 23:42:00,
2013-05-24 19:47:00,48.4,40.5,29.28,NE,43,5.0,19.0,74,0.00,,,0.07,meteohub,2013-05-24 23:47:00,
2013-05-24 19:52:00,48.0,40.1,29.28,East,96,1.0,19.0,74,0.00,,,0.07,meteohub,2013-05-24 23:52:00,
2013-05-24 19:57:00,47.8,40.3,29.28,WNW,291,2.0,19.0,75,0.00,,,0.07,meteohub,2013-05-24 23:57:00,
2013-05-24 20:02:00,47.8,40.3,29.29,NNE,20,6.0,16.0,75,0.00,,,0.07,meteohub,2013-05-25 00:02:00,
2013-05-24 20:07:00,47.7,40.1,29.29,WNW,283,3.0,16.0,75,0.00,,,0.07,meteohub,2013-05-25 00:07:00,
2013-05-24 20:12:00,47.5,40.3,29.29,North,355,1.0,14.0,76,0.00,,,0.07,meteohub,2013-05-25 00:12:00,
2013-05-24 20:17:00,47.5,40.6,29.30,NW,319,5.0,14.0,77,0.00,,,0.07,meteohub,2013-05-25 00:17:00,
2013-05-24 20:22:00,47.3,40.5,29.30,WNW,284,5.0,11.0,77,0.00,,,0.07,meteohub,2013-05-25 00:22:00,
2013-05-24 20:27:00,47.1,40.6,29.30,NNW,339,5.0,10.0,78,0.00,,,0.07,meteohub,2013-05-25 00:27:00,
2013-05-24 20:32:00,46.9,40.1,29.31,North,0,0.0,11.0,77,0.00,,,0.07,meteohub,2013-05-25 00:32:00,
2013-05-24 20:37:00,46.9,40.1,29.31,North,5,5.0,11.0,77,0.00,,,0.07,meteohub,2013-05-25 00:37:00,
2013-05-24 20:42:00,46.8,39.6,29.31,WNW,292,1.0,13.0,76,0.00,,,0.07,meteohub,2013-05-25 00:42:00,
2013-05-24 20:47:00,46.6,39.7,29.31,NW,308,5.0,13.0,77,0.00,,,0.07,meteohub,2013-05-25 00:47:00,
2013-05-24 20:52:00,46.4,39.6,29.31,WNW,300,11.0,13.0,77,0.00,,,0.07,meteohub,2013-05-25 00:52:00,
2013-05-24 20:57:00,46.2,39.0,29.31,North,355,4.0,12.0,76,0.00,,,0.07,meteohub,2013-05-25 00:57:00,
2013-05-24 21:02:00,46.0,39.2,29.31,North,355,3.0,12.0,77,0.00,,,0.07,meteohub,2013-05-25 01:02:00,
2013-05-24 21:07:00,46.0,39.2,29.31,North,5,6.0,15.0,77,0.00,,,0.07,meteohub,2013-05-25 01:07:00,
2013-05-24 21:12:00,45.9,39.0,29.32,West,269,6.0,15.0,77,0.00,,,0.07,meteohub,2013-05-25 01:12:00,
2013-05-24 21:17:00,45.9,39.0,29.32,NE,42,2.0,15.0,77,0.00,,,0.07,meteohub,2013-05-25 01:17:00,
2013-05-24 21:22:00,45.7,38.8,29.32,NNW,343,0.0,14.0,77,0.00,,,0.07,meteohub,2013-05-25 01:22:00,
2013-05-24 21:27:00,45.7,39.2,29.32,WNW,300,2.0,14.0,78,0.00,,,0.07,meteohub,2013-05-25 01:27:00,
2013-05-24 21:32:00,45.5,38.7,29.32,North,355,0.0,14.0,77,0.00,,,0.07,meteohub,2013-05-25 01:32:00,
2013-05-24 21:37:00,45.3,38.8,29.33,South,170,2.0,9.0,78,0.00,,,0.07,meteohub,2013-05-25 01:37:00,
2013-05-24 21:42:00,45.3,38.8,29.33,North,10,0.0,9.0,78,0.00,,,0.07,meteohub,2013-05-25 01:42:00,
2013-05-24 21:47:00,45.3,38.8,29.33,NNE,20,0.0,9.0,78,0.00,,,0.07,meteohub,2013-05-25 01:47:00,
2013-05-24 21:52:00,45.3,38.8,29.33,NNE,13,2.0,9.0,78,0.00,,,0.07,meteohub,2013-05-25 01:52:00,
2013-05-24 21:57:00,45.3,38.8,29.33,North,5,0.0,23.0,78,0.00,,,0.07,meteohub,2013-05-25 01:57:00,
2013-05-24 22:02:00,45.1,38.7,29.33,NNE,17,1.0,23.0,78,0.00,,,0.07,meteohub,2013-05-25 02:02:00,
2013-05-24 22:07:00,45.1,39.0,29.33,SSE,153,0.0,23.0,79,0.00,,,0.07,meteohub,2013-05-25 02:07:00,
2013-05-24 22:12:00,45.1,39.0,29.33,NNE,27,0.0,17.0,79,0.00,,,0.07,meteohub,2013-05-25 02:12:00,
2013-05-24 22:17:00,45.1,39.0,29.34,WNW,288,0.0,12.0,79,0.00,,,0.07,meteohub,2013-05-25 02:17:00,
2013-05-24 22:22:00,45.1,39.4,29.33,WNW,294,0.0,11.0,80,0.00,,,0.07,meteohub,2013-05-25 02:22:00,
2013-05-24 22:27:00,45.0,39.6,29.34,NW,321,0.0,0.0,81,0.00,,,0.07,meteohub,2013-05-25 02:27:00,
2013-05-24 22:32:00,45.0,39.6,29.34,NE,54,0.0,0.0,81,0.00,,,0.07,meteohub,2013-05-25 02:32:00,
2013-05-24 22:37:00,45.0,39.6,29.33,SSW,213,0.0,0.0,81,0.00,,,0.07,meteohub,2013-05-25 02:37:00,
2013-05-24 22:42:00,45.0,39.7,29.34,NNE,17,0.0,0.0,82,0.00,,,0.07,meteohub,2013-05-25 02:42:00,
2013-05-24 22:46:00,45.0,39.7,29.34,NNW,330,0.0,0.0,82,0.00,,,0.07,meteohub,2013-05-25 02:46:00,
2013-05-24 22:51:00,44.8,39.9,29.33,NNW,328,0.0,0.0,83,0.00,,,0.07,meteohub,2013-05-25 02:51:00,
2013-05-24 22:56:00,44.8,39.9,29.34,WNW,290,0.0,0.0,83,0.00,,,0.07,meteohub,2013-05-25 02:56:00,
2013-05-24 23:01:00,44.6,39.7,29.34,East,99,0.0,0.0,83,0.00,,,0.07,meteohub,2013-05-25 03:01:00,
2013-05-24 23:07:00,44.4,39.6,29.34,WNW,290,0.0,0.0,83,0.00,,,0.07,meteohub,2013-05-25 03:07:00,
2013-05-24 23:12:00,44.4,39.9,29.34,West,269,0.0,0.0,84,0.00,,,0.07,meteohub,2013-05-25 03:12:00,
2013-05-24 23:17:00,44.4,39.9,29.34,WNW,298,0.0,0.0,84,0.00,,,0.07,meteohub,2013-05-25 03:17:00,
2013-05-24 23:22:00,44.4,39.9,29.33,North,0,0.0,0.0,84,0.00,,,0.07,meteohub,2013-05-25 03:22:00,
2013-05-24 23:27:00,44.4,39.9,29.34,WNW,294,0.0,0.0,84,0.00,,,0.07,meteohub,2013-05-25 03:27:00,
2013-05-24 23:32:00,44.2,39.7,29.34,NNE,30,0.0,0.0,84,0.00,,,0.07,meteohub,2013-05-25 03:32:00,
2013-05-24 23:37:00,44.2,39.7,29.33,WNW,302,0.0,0.0,84,0.00,,,0.07,meteohub,2013-05-25 03:37:00,
2013-05-24 23:42:00,44.2,39.7,29.33,North,355,0.0,0.0,84,0.00,,,0.07,meteohub,2013-05-25 03:42:00,
2013-05-24 23:47:00,44.2,39.7,29.33,NNW,333,0.0,0.0,84,0.00,,,0.07,meteohub,2013-05-25 03:47:00,
2013-05-24 23:52:00,44.2,40.1,29.33,SSE,153,0.0,0.0,85,0.00,,,0.07,meteohub,2013-05-25 03:52:00,
2013-05-24 23:57:00,44.2,40.1,29.33,West,271,0.0,0.0,85,0.00,,,0.07,meteohub,2013-05-25 03:57:00,